Temperatur und Luftfeuchte: Die letzten 100 Werte

Nummer Datum Zeit Sensor Temp Celsius Gef├╝hlte Temp Luftfeuchte in %
4117 2019-02-24 07:05:13 ESP12E-S1 1.80 -0.80 44.70
4116 2019-02-24 06:36:59 ESP12E-S1 2.00 -0.59 44.10
4115 2019-02-24 06:08:43 ESP12E-S1 2.10 -0.45 45.20
4114 2019-02-24 05:40:28 ESP12E-S1 2.20 -0.38 44.00
4113 2019-02-24 05:12:13 ESP12E-S1 2.30 -0.21 46.30
4112 2019-02-24 04:44:00 ESP12E-S1 2.50 -0.01 45.40
4111 2019-02-24 04:15:46 ESP12E-S1 2.60 0.07 44.10
4110 2019-02-24 03:47:32 ESP12E-S1 2.80 0.27 43.60
4109 2019-02-24 03:19:16 ESP12E-S1 3.00 0.48 43.10
4108 2019-02-24 02:51:01 ESP12E-S1 3.00 0.50 43.70
4107 2019-02-24 02:22:49 ESP12E-S1 3.20 0.73 44.40
4106 2019-02-24 01:54:34 ESP12E-S1 3.40 0.95 44.20
4105 2019-02-24 01:26:19 ESP12E-S1 3.50 1.08 45.00
4104 2019-02-24 00:58:05 ESP12E-S1 3.70 1.31 45.50
4103 2019-02-24 00:29:50 ESP12E-S1 3.80 1.44 46.00
4102 2019-02-24 00:01:34 ESP12E-S1 3.90 1.55 46.20
4101 2019-02-23 23:33:18 ESP12E-S1 4.00 1.68 46.90
4100 2019-02-23 23:05:04 ESP12E-S1 4.30 2.00 46.50
4099 2019-02-23 22:36:50 ESP12E-S1 4.50 2.22 46.60
4098 2019-02-23 22:08:35 ESP12E-S1 4.60 2.35 47.40
4097 2019-02-23 21:40:20 ESP12E-S1 4.80 2.57 47.10
4096 2019-02-23 21:12:05 ESP12E-S1 5.10 2.93 48.40
4095 2019-02-23 20:43:52 ESP12E-S1 5.40 3.25 48.00
4094 2019-02-23 20:15:39 ESP12E-S1 6.00 3.88 46.90
4093 2019-02-23 19:47:25 ESP12E-S1 6.30 4.20 46.50
4092 2019-02-23 19:19:11 ESP12E-S1 6.70 4.61 45.20
4091 2019-02-23 18:51:06 ESP12E-S1 7.00 4.91 44.30
4090 2019-02-23 18:22:51 ESP12E-S1 7.50 5.46 44.10
4089 2019-02-23 17:54:41 ESP12E-S1 8.10 6.11 43.70
4088 2019-02-23 17:26:31 ESP12E-S1 9.20 7.31 43.50
4087 2019-02-23 16:58:24 ESP12E-S1 10.60 8.81 42.10
4086 2019-02-23 16:30:20 ESP12E-S1 12.50 10.87 40.90
4085 2019-02-23 16:02:16 ESP12E-S1 14.70 13.18 36.60
4084 2019-02-23 15:33:57 ESP12E-S1 14.40 12.98 41.70
4083 2019-02-23 15:05:23 ESP12E-S1 12.20 10.67 45.90
4082 2019-02-23 14:37:07 ESP12E-S1 11.90 10.36 46.50
4081 2019-02-23 14:08:51 ESP12E-S1 11.70 10.15 47.00
4080 2019-02-23 13:40:39 ESP12E-S1 12.00 10.48 46.80
4079 2019-02-23 13:12:40 ESP12E-S1 13.40 11.98 45.30
4078 2019-02-23 12:44:34 ESP12E-S1 13.20 11.82 47.70
4077 2019-02-23 12:15:43 ESP12E-S1 10.10 8.62 55.70
4076 2019-02-23 11:47:13 ESP12E-S1 8.60 7.04 58.50
4075 2019-02-23 11:18:55 ESP12E-S1 7.80 6.20 60.10
4074 2019-02-23 10:50:43 ESP12E-S1 7.30 5.70 62.00
4073 2019-02-23 10:22:21 ESP12E-S1 6.30 4.71 66.20
4072 2019-02-23 09:53:48 ESP12E-S1 4.80 3.17 70.10
4071 2019-02-23 09:25:26 ESP12E-S1 3.90 2.30 74.80
4070 2019-02-23 08:57:06 ESP12E-S1 3.20 1.64 79.20
4069 2019-02-23 08:28:48 ESP12E-S1 2.80 1.29 82.50
4068 2019-02-23 08:00:35 ESP12E-S1 2.80 1.29 82.60
4067 2019-02-23 07:32:20 ESP12E-S1 2.90 1.41 83.00
4066 2019-02-23 07:04:07 ESP12E-S1 3.20 1.70 81.50
4065 2019-02-23 06:35:51 ESP12E-S1 3.50 2.04 81.60
4064 2019-02-23 06:07:36 ESP12E-S1 3.70 2.25 81.40
4063 2019-02-23 05:39:22 ESP12E-S1 3.90 2.51 83.00
4062 2019-02-23 05:11:08 ESP12E-S1 4.00 2.63 83.40
4061 2019-02-23 04:42:53 ESP12E-S1 4.30 2.95 82.90
4060 2019-02-23 04:14:40 ESP12E-S1 4.70 3.40 83.10
4059 2019-02-23 03:46:25 ESP12E-S1 5.00 3.79 85.50
4058 2019-02-23 03:18:09 ESP12E-S1 5.10 3.93 86.70
4057 2019-02-23 02:49:55 ESP12E-S1 5.20 4.09 88.70
4056 2019-02-23 02:21:39 ESP12E-S1 5.30 4.21 89.20
4055 2019-02-23 01:53:25 ESP12E-S1 5.40 4.33 89.50
4054 2019-02-23 01:25:10 ESP12E-S1 5.80 4.79 90.10
4053 2019-02-23 00:56:56 ESP12E-S1 6.00 5.02 90.50
4052 2019-02-23 00:28:42 ESP12E-S1 6.20 5.25 90.80
4051 2019-02-23 00:00:27 ESP12E-S1 6.50 5.57 90.60
4050 2019-02-22 23:32:13 ESP12E-S1 6.80 5.89 90.20
4049 2019-02-22 23:03:59 ESP12E-S1 7.10 6.21 89.60
4048 2019-02-22 22:35:44 ESP12E-S1 7.20 6.26 87.50
4047 2019-02-22 22:07:28 ESP12E-S1 7.40 6.47 87.10
4046 2019-02-22 21:39:13 ESP12E-S1 7.60 6.63 84.80
4045 2019-02-22 21:11:00 ESP12E-S1 7.80 6.76 81.50
4044 2019-02-22 20:42:45 ESP12E-S1 7.90 6.80 78.60
4043 2019-02-22 20:14:31 ESP12E-S1 8.20 7.09 77.20
4042 2019-02-22 19:46:17 ESP12E-S1 8.40 7.29 76.30
4041 2019-02-22 19:18:02 ESP12E-S1 8.70 7.65 77.50
4040 2019-02-22 18:49:49 ESP12E-S1 9.10 8.14 79.30
4039 2019-02-22 18:21:37 ESP12E-S1 9.70 8.85 81.40
4038 2019-02-22 17:53:24 ESP12E-S1 10.10 9.25 79.80
4037 2019-02-22 17:25:10 ESP12E-S1 10.50 9.62 77.00
4036 2019-02-22 16:56:56 ESP12E-S1 10.90 9.99 74.40
4035 2019-02-22 16:28:40 ESP12E-S1 11.10 10.20 73.90
4034 2019-02-22 16:00:27 ESP12E-S1 11.30 10.36 71.70
4033 2019-02-22 15:32:13 ESP12E-S1 11.60 10.69 71.70
4032 2019-02-22 15:03:57 ESP12E-S1 11.70 10.78 71.10
4031 2019-02-22 14:35:38 ESP12E-S1 11.40 10.45 71.20
4030 2019-02-22 14:07:22 ESP12E-S1 11.30 10.36 71.60
4029 2019-02-22 13:39:14 ESP12E-S1 11.50 10.60 72.50
4028 2019-02-22 13:10:58 ESP12E-S1 11.90 11.03 72.20
4027 2019-02-22 12:42:46 ESP12E-S1 12.50 11.63 69.70
4026 2019-02-22 12:14:20 ESP12E-S1 12.10 11.23 71.40
4025 2019-02-22 11:46:05 ESP12E-S1 12.50 11.65 70.80
4024 2019-02-22 11:17:42 ESP12E-S1 11.40 10.59 76.40
4023 2019-02-22 10:49:25 ESP12E-S1 11.10 10.38 81.10
4022 2019-02-22 10:21:00 ESP12E-S1 10.00 9.36 88.10
4021 2019-02-22 09:52:44 ESP12E-S1 9.50 8.93 93.00
4020 2019-02-22 09:24:24 ESP12E-S1 9.10 8.51 93.70
4019 2019-02-22 08:56:05 ESP12E-S1 8.80 8.23 95.70
4018 2019-02-22 08:27:49 ESP12E-S1 8.40 7.82 96.80